Location: ????????
(55.8351°N, 38.7040°E)
Time: 10:15:20
(UTC+00:00)

Lacrosse 4 Rocket - Pass Details

Date: 14 April 2024
Orbit: 530 x 592 km, 68.0° (Epoch: 20 May)

Event Time Altitude Azimuth Distance (km) Brightness Sun altitude
Exits shadow 00:13:33 12° 283° (WNW) 1,679 3.5 -15.9°
Maximum altitude 00:16:25 23° 334° (NNW) 1,169 3.2 -15.7°
Drops below altitude 10° 00:19:39 10° 28° (NNE) 1,793 5.1 -15.3°
Sets 00:22:11 0° 43° (NE) 2,685 6.8 -15.1°
